Location: Caoba
(9.7667°N, 67.4833°W)
Time: 19:42:02
(UTC+00:00)

GOES 2 Rocket - Pass Details

Date: 14 December 2024
Orbit: 569 x 1662 km, 28.4° (Epoch: 14 January)

Event Time Altitude Azimuth Distance (km) Brightness Sun altitude
Rises 22:13:08 0° 233° (SW) 4,876 9.7 -1.1°
Reaches altitude 10° 22:16:28 10° 231° (SW) 3,905 8.8 -1.9°
Maximum altitude 22:26:53 68° 150° (SSE) 1,678 5.2 -4.3°
Drops below altitude 10° 22:35:58 10° 69° (ENE) 3,442 6.2 -6.3°
Enters shadow 22:36:42 - 69° (ENE) 3,661 6.3 -6.5°
